PRPAG SBGO-SBBR

Flight info

Callsign PRPAG
Flight time N/A
Altitude 19000
Route LODUV Z15 PAJEM
Aircraft C25C/M-SDE2E3FGHRWXY/LB1

Departure

Time 2026-04-24 23:01
Airport Santa Genoveva International Airport (SBGO)

Arrival

Time N/A
Airport Presidente Juscelino Kubitschek International Airport (SBBR)
Time Latitude Longitude Altitude Speed Heading
2026-04-24 22:50 -16.62955 -49.23041 2451 ft 0 kts 28°
2026-04-24 22:56 -16.62954 -49.23040 2451 ft 0 kts 46°
2026-04-24 22:56 -16.62954 -49.23039 2451 ft 0 kts 64°
2026-04-24 22:57 -16.62955 -49.23036 2451 ft 0 kts 111°
2026-04-24 22:57 -16.62958 -49.23033 2456 ft 3 kts 128°
2026-04-24 22:57 -16.62954 -49.23000 2451 ft 5 kts 47°
2026-04-24 22:57 -16.62924 -49.22998 2451 ft 4 kts 327°
2026-04-24 22:58 -16.62902 -49.23033 2451 ft 8 kts 304°
2026-04-24 22:58 -16.62868 -49.23080 2450 ft 9 kts 326°
2026-04-24 22:58 -16.62803 -49.23104 2450 ft 10 kts 344°
2026-04-24 22:58 -16.62736 -49.23123 2451 ft 0 kts 339°
2026-04-24 22:59 -16.62724 -49.23128 2452 ft 9 kts 338°
2026-04-24 23:00 -16.62648 -49.23134 2449 ft 12 kts 40°
2026-04-24 23:00 -16.62683 -49.23023 2452 ft 44 kts 119°
2026-04-24 23:00 -16.63015 -49.22447 2494 ft 135 kts 122°
2026-04-24 23:00 -16.63648 -49.21459 2945 ft 192 kts 123°
2026-04-24 23:01 -16.64413 -49.20146 3790 ft 229 kts 118°
2026-04-24 23:01 -16.65194 -49.18602 4889 ft 251 kts 116°
2026-04-24 23:01 -16.65853 -49.16865 6088 ft 265 kts 98°
2026-04-24 23:01 -16.65732 -49.14953 7298 ft 265 kts 77°
2026-04-24 23:02 -16.65356 -49.13716 8108 ft 264 kts 72°
2026-04-24 23:02 -16.64746 -49.11915 9305 ft 263 kts 71°
2026-04-24 23:02 -16.64128 -49.10145 10450 ft 263 kts 72°
2026-04-24 23:02 -16.63529 -49.08349 11544 ft 261 kts 72°
2026-04-24 23:03 -16.62942 -49.06571 12635 ft 258 kts 73°
2026-04-24 23:03 -16.62358 -49.04822 13738 ft 253 kts 73°
2026-04-24 23:03 -16.61786 -49.03105 14712 ft 248 kts 73°
2026-04-24 23:03 -16.61223 -49.01420 15650 ft 244 kts 72°
2026-04-24 23:04 -16.60670 -48.99767 16582 ft 240 kts 72°
2026-04-24 23:04 -16.60128 -48.98138 17502 ft 236 kts 72°
2026-04-24 23:04 -16.59593 -48.96536 18412 ft 232 kts 72°
2026-04-24 23:04 -16.59052 -48.94916 18957 ft 243 kts 71°
2026-04-24 23:05 -16.58465 -48.93158 19054 ft 270 kts 71°
2026-04-24 23:05 -16.57827 -48.91239 19070 ft 290 kts 71°
2026-04-24 23:05 -16.57094 -48.89205 19059 ft 309 kts 63°
2026-04-24 23:05 -16.55594 -48.87548 19069 ft 328 kts 33°
2026-04-24 23:06 -16.53394 -48.86807 19089 ft 335 kts
2026-04-24 23:06 -16.51115 -48.87054 18231 ft 336 kts 343°
2026-04-24 23:06 -16.49152 -48.88380 17248 ft 339 kts 315°
2026-04-24 23:06 -16.47723 -48.90318 16365 ft 336 kts 304°
2026-04-24 23:07 -16.46822 -48.92502 15506 ft 334 kts 279°
2026-04-24 23:07 -16.46752 -48.94893 14684 ft 329 kts 267°
2026-04-24 23:07 -16.46850 -48.97257 13865 ft 325 kts 266°
2026-04-24 23:07 -16.46862 -48.99595 12993 ft 320 kts 271°
2026-04-24 23:08 -16.46726 -49.01888 12176 ft 314 kts 272°
2026-04-24 23:08 -16.46608 -49.04143 11363 ft 309 kts 271°
2026-04-24 23:08 -16.46530 -49.06364 10560 ft 303 kts 270°
2026-04-24 23:08 -16.46466 -49.08542 9796 ft 298 kts 271°
2026-04-24 23:09 -16.46378 -49.10685 8958 ft 294 kts 271°
2026-04-24 23:09 -16.46297 -49.12808 8112 ft 292 kts 271°
2026-04-24 23:09 -16.46214 -49.14921 7294 ft 291 kts 271°
2026-04-24 23:09 -16.46142 -49.16950 7022 ft 271 kts 271°
2026-04-24 23:10 -16.46067 -49.18812 7005 ft 244 kts 271°
2026-04-24 23:10 -16.46003 -49.20512 6999 ft 230 kts 272°
2026-04-24 23:10 -16.45939 -49.22168 7004 ft 226 kts 271°
2026-04-24 23:10 -16.45876 -49.23801 7006 ft 224 kts 272°
2026-04-24 23:11 -16.45816 -49.25411 7006 ft 221 kts 271°
2026-04-24 23:11 -16.45749 -49.27011 7006 ft 220 kts 272°
2026-04-24 23:11 -16.45693 -49.28597 7000 ft 218 kts 271°
2026-04-24 23:11 -16.45629 -49.30169 7001 ft 217 kts 271°
2026-04-24 23:12 -16.45608 -49.31735 6999 ft 215 kts 263°
2026-04-24 23:12 -16.46196 -49.33104 6963 ft 212 kts 227°
2026-04-24 23:12 -16.47364 -49.34007 6796 ft 207 kts 207°
2026-04-24 23:12 -16.48606 -49.34751 6571 ft 205 kts 206°
2026-04-24 23:13 -16.49842 -49.35482 6361 ft 203 kts 207°
2026-04-24 23:13 -16.51066 -49.36218 6118 ft 203 kts 207°
2026-04-24 23:13 -16.52296 -49.36946 5851 ft 203 kts 202°
2026-04-24 23:13 -16.53644 -49.37131 5593 ft 192 kts 169°
2026-04-24 23:14 -16.54833 -49.36617 5351 ft 183 kts 140°
2026-04-24 23:14 -16.55617 -49.35619 5127 ft 177 kts 118°
2026-04-24 23:14 -16.56223 -49.34534 4911 ft 169 kts 119°
2026-04-24 23:14 -16.56803 -49.33495 4699 ft 163 kts 118°
2026-04-24 23:15 -16.57366 -49.32485 4489 ft 158 kts 119°
2026-04-24 23:15 -16.57911 -49.31522 4291 ft 151 kts 118°
2026-04-24 23:15 -16.58423 -49.30607 4111 ft 143 kts 119°
2026-04-24 23:15 -16.58878 -49.29801 3937 ft 119 kts 118°
2026-04-24 23:16 -16.59278 -49.29092 3787 ft 108 kts 118°
2026-04-24 23:16 -16.59644 -49.28432 3644 ft 104 kts 118°
2026-04-24 23:16 -16.60009 -49.27760 3449 ft 111 kts 118°
2026-04-24 23:16 -16.60379 -49.27046 3309 ft 112 kts 118°
2026-04-24 23:17 -16.60771 -49.26334 3122 ft 114 kts 120°
2026-04-24 23:17 -16.61166 -49.25615 2963 ft 113 kts 121°
2026-04-24 23:17 -16.61577 -49.24922 2836 ft 111 kts 120°
2026-04-24 23:17 -16.61983 -49.24229 2712 ft 113 kts 120°
2026-04-24 23:18 -16.62373 -49.23543 2575 ft 110 kts 122°
2026-04-24 23:18 -16.62763 -49.22875 2465 ft 101 kts 121°
2026-04-24 23:18 -16.63076 -49.22324 2454 ft 75 kts 121°
2026-04-24 23:18 -16.63256 -49.21997 2460 ft 37 kts 123°
2026-04-24 23:19 -16.63376 -49.21791 2455 ft 30 kts 123°
2026-04-24 23:19 -16.63451 -49.21624 2462 ft 22 kts 106°
2026-04-24 23:19 -16.63471 -49.21478 2456 ft 19 kts 90°
2026-04-24 23:19 -16.63476 -49.21381 2455 ft 11 kts 114°
2026-04-24 23:20 -16.63482 -49.21322 2455 ft 7 kts 101°
2026-04-24 23:20 -16.63493 -49.21275 2459 ft 6 kts 105°
2026-04-24 23:20 -16.63507 -49.21230 2459 ft 7 kts 110°
2026-04-24 23:20 -16.63547 -49.21149 2459 ft 17 kts 121°
2026-04-24 23:21 -16.63597 -49.21036 2456 ft 17 kts 81°
2026-04-24 23:21 -16.63503 -49.21014 2456 ft 16 kts 342°
2026-04-24 23:21 -16.63401 -49.21047 2456 ft 15 kts 326°
2026-04-24 23:21 -16.63342 -49.21137 2459 ft 15 kts 310°
2026-04-24 23:22 -16.63303 -49.21200 2455 ft 5 kts 303°
2026-04-24 23:22 -16.63301 -49.21204 2461 ft 0 kts 303°
2026-04-24 23:22 -16.63289 -49.21221 2458 ft 7 kts 309°
2026-04-24 23:23 -16.63249 -49.21289 2456 ft 15 kts 303°
2026-04-24 23:23 -16.63186 -49.21402 2458 ft 19 kts 301°
2026-04-24 23:23 -16.63122 -49.21484 2457 ft 9 kts
2026-04-24 23:23 -16.63084 -49.21459 2458 ft 6 kts 36°
2026-04-24 23:24 -16.63067 -49.21444 2456 ft 0 kts 43°